Location: Winthrop
(48.4780°N, 120.1850°W)
Time: 11:15:07
(UTC-07:00)

Vanguard 3 - Pass Details

Date: 07 February 2023
Orbit: 508 x 3249 km, 33.4° (Epoch: 27 March)

Event Time Altitude Azimuth Distance (km) Brightness Sun altitude
Rises 23:17:35 0° 267° (W) 5,396 11.5 -54.5°
Reaches altitude 10° 23:21:44 10° 254° (WSW) 4,803 11.1 -54.8°
Enters shadow 23:22:39 12° 251° (WSW) 4,706 11.0 -54.9°
